#timestamp,LO_Frequency,Hit,StdDev 
1653544815.7,286047001.1,P
1653544835.5,286047001.1,P
1653544855.3,286046998.1,P
1653544875.2,286047000.7,N
1653544895.0,286047000.5,N
1653544895.9,286047000.5,N
1653544915.7,286046999.9,N
1653544935.6,286047002.4,N
1653544955.4,286047002.2,N
1653544975.3,286047002.7,N
1653544995.1,286047002.8,N
1653544996.0,286047002.8,N
1653545015.8,286047002.7,N
1653545035.7,286047001.1,N
1653545055.5,286047000.2,N
1653545075.3,286046999.9,N
1653545095.2,286047000.7,N
1653545115.0,286047000.3,N
1653545115.9,286047000.3,N
1653545135.8,286047002.6,N
1653545155.6,286047002.6,N
1653545175.4,286047000.3,N
1653545195.3,286047000.1,N
1653545215.1,286047000.9,N
1653545235.8,286047000.6,N
1653545255.7,286047001.0,N
1653545275.5,286047000.8,N
1653545295.4,286047000.5,N
1653545315.2,286047000.2,N
1653545335.1,286046999.9,N
1653545336.0,286046999.9,N
1653545355.8,286047002.7,N
1653545375.6,286046999.8,N
1653545395.5,286047000.1,N
1653545415.3,286047000.4,N
1653545435.2,286047002.8,N
1653545455.9,286047002.4,N
1653545475.7,286047000.4,N
1653545495.6,286047001.2,N
1653545515.4,286046999.8,N
1653545535.3,286047002.6,N
1653545555.1,286047002.2,N
1653545556.0,286047002.2,N
1653545575.8,286047002.4,N
1653545595.7,286047002.8,N
1653545615.5,286047000.5,N
1653545635.3,286047000.8,N
1653545655.2,286047000.5,N
1653545675.0,286047000.4,N
1653545675.9,286047000.4,N
1653545695.8,286047001.1,N
1653545715.6,286047000.6,N
1653545735.4,286046998.1,N
1653545755.3,286046998.1,N
1653545775.1,286046998.1,N
1653545795.9,286046998.6,N
1653545815.7,286047000.7,N
1653545835.5,286047000.6,N
1653545855.4,286047000.7,N
1653545875.2,286046999.9,N
1653545895.1,286047002.4,N
1653545896.0,286047002.4,N
1653545915.8,286047001.8,N
1653545935.6,286047001.8,N
1653545955.5,286047001.4,N
1653545975.3,286047002.2,N
1653545995.1,286047001.9,N
1653546015.9,286047002.4,N
1653546035.7,286047001.8,N
1653546055.6,286047002.0,N
1653546075.4,286047002.8,N
1653546095.2,286047002.2,N
1653546115.1,286047001.3,N
1653546116.0,286047001.3,N
1653546135.8,286047001.6,N
1653546155.7,286047002.3,N
1653546175.5,286047002.5,N
1653546195.3,286047004.3,Y
1653546215.2,286047002.3,P
1653546235.0,286047002.5,P
1653546235.9,286047002.5,P
1653546255.7,286047002.4,Y
1653546275.6,286046998.8,P
1653546295.4,286046996.9,N
1653546315.3,286046997.0,N
1653546335.1,286046997.7,N
1653546336.0,286046997.7,N
1653546355.8,286046996.9,N
1653546375.7,286047001.2,N
1653546395.5,286046998.7,N
1653546415.3,286046998.4,N
1653546435.2,286046996.9,N
1653546455.0,286046999.4,N
1653546455.9,286046999.4,N
1653546475.8,286046996.5,N
1653546495.6,286046996.5,N
1653546515.4,286046995.9,N
1653546535.3,286046995.6,N
1653546555.1,286046993.6,Y
1653546575.9,286046995.6,P
1653546595.7,286046997.4,N
1653546615.5,286046996.6,P
1653546635.4,286046997.2,Y
1653546655.2,286047000.0,P
1653546675.0,286047000.7,N
1653546675.9,286047000.7,N
1653546695.8,286047001.0,N
1653546715.6,286047000.5,N
1653546735.5,286047001.1,N
1653546755.3,286047001.1,N
1653546775.1,286046999.9,N
1653546795.9,286046999.7,N
1653546815.7,286047000.5,N
1653546835.6,286047001.0,N
1653546855.4,286046998.5,N
1653546875.2,286047000.0,N
1653546895.1,286046998.4,N
1653546896.0,286046998.4,N
1653546915.8,286046999.4,N
1653546935.6,286046999.4,N
1653546955.5,286046996.8,N
1653546975.3,286046999.2,N
1653546995.2,286046996.6,N
1653547015.0,286046996.9,N
1653547015.9,286046996.9,N
1653547035.7,286046997.0,N
1653547055.6,286046999.3,N
1653547075.4,286046999.0,N
1653547095.3,286046999.5,N
1653547115.1,286046998.9,N
1653547116.0,286046998.9,N
1653547135.8,286046998.9,N
1653547155.7,286046999.3,N
1653547175.5,286046997.0,N
1653547195.3,286046996.8,N
1653547215.2,286046996.3,N
1653547235.0,286046995.6,Y
1653547235.9,286046995.6,P
1653547255.8,286046997.3,N
1653547275.6,286046999.5,N
1653547295.4,286046999.2,N
1653547315.3,286046996.7,N
1653547335.1,286046997.1,N
1653547355.9,286046996.5,N
1653547375.7,286046999.5,N
1653547395.5,286046996.6,N
1653547415.4,286046999.6,N
1653547435.2,286046999.3,N
1653547455.0,286046998.9,N
1653547455.9,286046998.9,N
1653547475.8,286046999.6,N
1653547495.6,286046999.6,N
1653547515.5,286046996.8,N
1653547535.3,286046996.5,N
1653547555.1,286046996.9,N
1653547575.9,286046999.1,N
1653547595.7,286046999.6,N
1653547615.5,286046999.6,N
1653547635.4,286046997.0,N
1653547655.2,286046997.6,N
1653547675.1,286046997.6,N
1653547676.0,286046997.6,N
1653547695.8,286046996.5,N
1653547715.6,286046996.5,N
1653547735.5,286046997.0,N
1653547755.3,286046996.7,N
1653547775.1,286046996.6,N
1653547795.9,286046996.5,N
1653547815.7,286046999.1,N
1653547835.6,286046997.8,N
1653547855.4,286046995.3,Y
1653547875.2,286046996.9,P
1653547895.1,286046999.6,N
1653547896.0,286046999.6,N
1653547915.8,286046999.5,N
1653547935.6,286046999.3,N
1653547955.5,286046998.9,N
1653547975.3,286046998.9,N
1653547995.2,286046999.5,N
1653548015.9,286046996.9,Y
1653548035.7,286046998.8,P
1653548055.6,286046998.3,P
1653548075.4,286047001.2,P
1653548095.2,286047000.7,N
1653548115.1,286046998.7,N
1653548116.0,286046998.7,N
1653548135.8,286046998.3,N
1653548155.7,286047001.2,N
1653548175.5,286046998.6,N
1653548195.3,286046998.6,N
1653548215.2,286046998.6,N
1653548235.0,286047001.1,N
1653548235.9,286047001.1,N
1653548255.8,286046998.3,N
1653548275.6,286046998.8,N
1653548295.4,286046996.9,N
1653548315.3,286046996.9,N
1653548335.1,286046996.6,N
1653548355.9,286046999.0,N
1653548375.7,286047001.1,N
1653548395.5,286047000.6,N
